Change the Weather History Date:

Wednesday, May 29, 2013

  Actual Average Record
Temperature  
Mean Temperature 63 °F -  
Max Temperature 75 °F 74 °F 90 °F (1969)
Min Temperature 51 °F 52 °F 36 °F (1965)
Degree Days  
Heating Degree Days 2    
Growing Degree Days 13 (Base 50)    
Moisture  
Dew Point 62 °F    
Average Humidity 90    
Maximum Humidity 100    
Minimum Humidity 73    
Precipitation  
Precipitation 0.00 in - - ()
Sea Level Pressure  
Sea Level Pressure 29.72 in    
Wind  
Wind Speed 6 mph (SE)    
Max Wind Speed 17 mph    
Max Gust Speed 23 mph    
Visibility 7 miles    
Events Fog , Rain    
Averages and records for this station are not official NWS values.
T = Trace of Precipitation, MM = Missing Value Source: NWS Daily Summary

Daily Weather History Graph

Daily Weather History Graph

Search for Another Location

Airport or City:

Trip Planner

Search our weather history database for the weather conditions in past years. The results will help you decide how hot, cold, wet, or windy it might be!

Date:

Astronomy

May. 29, 2013 Rise Set
Actual Time 5:35 AM CDT 8:55 PM CDT
Civil Twilight 4:59 AM CDT 9:31 PM CDT
Nautical Twilight 4:12 AM CDT 10:19 PM CDT
Astronomical Twilight 3:13 AM CDT 11:18 PM CDT
Moon 12:12 AM CDT (5/29) 10:43 AM CDT (5/29)
Length of Visible Light 16h 32m
Length of Day
15h 19m
Waning Gibbous, 73% of the Moon is Illuminated
May 29
Waning Gibbous
May 31
Last Quarter
Jun 8
New
Jun 16
First Quarter
Jun 23
Full

Hourly Weather History & Observations

Time (CDT) Temp. Dew Point Humidity Pressure Visibility Wind Dir Wind Speed Gust Speed Precip Events Conditions
12:13 AM 57.2 °F 55.4 °F 94% 29.78 in 5.0 mi Calm Calm - N/A   Clear
12:33 AM 55.4 °F 55.4 °F 100% 29.79 in 5.0 mi Calm Calm - N/A   Mist
12:53 AM 57.2 °F 55.4 °F 94% 29.78 in 5.0 mi Calm Calm - N/A   Mist
1:13 AM 55.4 °F 55.4 °F 100% 29.77 in 4.0 mi Calm Calm - N/A   Clear
1:33 AM 55.4 °F 53.6 °F 94% 29.77 in 2.0 mi Calm Calm - N/A   Clear
1:53 AM 55.4 °F 55.4 °F 100% 29.77 in 2.5 mi Calm Calm - N/A   Clear
2:13 AM 55.4 °F 55.4 °F 100% 29.77 in 3.0 mi Calm Calm - N/A   Clear
2:33 AM 53.6 °F 53.6 °F 100% 29.77 in 0.5 mi Calm Calm - N/A Fog Fog
2:53 AM 53.6 °F 53.6 °F 100% 29.78 in 2.5 mi Calm Calm - N/A   Scattered Clouds
3:13 AM 53.6 °F 53.6 °F 100% 29.78 in 0.2 mi Calm Calm - N/A Fog Fog
3:33 AM 53.6 °F 53.6 °F 100% 29.79 in 0.2 mi SSE 3.5 mph - N/A Fog Fog
3:53 AM 51.8 °F 51.8 °F 100% 29.79 in 0.5 mi SE 3.5 mph - N/A Fog Fog
4:13 AM 53.6 °F 53.6 °F 100% 29.79 in 1.5 mi SSE 3.5 mph - N/A   Mostly Cloudy
4:33 AM 51.8 °F 51.8 °F 100% 29.78 in 0.2 mi SE 4.6 mph - N/A Fog Fog
4:53 AM 51.8 °F 51.8 °F 100% 29.77 in 0.2 mi East 3.5 mph - N/A Fog Fog
5:13 AM 53.6 °F 53.6 °F 100% 29.76 in 0.2 mi East 4.6 mph - N/A Fog Fog
5:33 AM 53.6 °F 53.6 °F 100% 29.76 in 0.2 mi ESE 4.6 mph - N/A   Drizzle
5:53 AM 55.4 °F 55.4 °F 100% 29.77 in 0.2 mi Calm Calm - N/A   Drizzle
6:13 AM 55.4 °F 55.4 °F 100% 29.76 in 0.2 mi East 5.8 mph - N/A   Light Drizzle
6:33 AM 55.4 °F 55.4 °F 100% 29.77 in 0.2 mi SE 4.6 mph - N/A   Heavy Drizzle
6:52 AM 55.4 °F 55.4 °F 100% 29.78 in 0.2 mi SE 5.8 mph - N/A   Drizzle
7:13 AM 55.4 °F 55.4 °F 100% 29.79 in 0.2 mi SE 6.9 mph - N/A   Light Drizzle
7:32 AM 57.2 °F 57.2 °F 100% 29.80 in 1.5 mi SSE 5.8 mph - N/A   Overcast
7:53 AM 57.2 °F 57.2 °F 100% 29.81 in 3.0 mi SSE 4.6 mph - N/A   Mostly Cloudy
8:13 AM 59.0 °F 59.0 °F 100% 29.81 in 4.0 mi SE 4.6 mph - N/A   Scattered Clouds
8:32 AM 60.8 °F 60.8 °F 100% 29.80 in 5.0 mi SE 8.1 mph - N/A   Clear
8:53 AM 62.6 °F 62.6 °F 100% 29.78 in 7.0 mi ESE 9.2 mph - N/A   Clear
9:13 AM 64.4 °F 64.4 °F 100% 29.76 in 10.0 mi East 11.5 mph - N/A   Clear
9:32 AM 68.0 °F 62.6 °F 83% 29.75 in 10.0 mi ESE 10.4 mph - N/A   Clear
9:53 AM 68.0 °F 62.6 °F 83% 29.76 in 10.0 mi ESE 10.4 mph - N/A   Clear
10:13 AM 68.0 °F 62.6 °F 83% 29.75 in 10.0 mi East 11.5 mph - N/A   Scattered Clouds
10:32 AM 71.6 °F 64.4 °F 78% 29.73 in 10.0 mi SE 13.8 mph - N/A   Scattered Clouds
10:53 AM 71.6 °F 64.4 °F 78% 29.73 in 10.0 mi ESE 11.5 mph - N/A   Scattered Clouds
11:12 AM 71.6 °F 64.4 °F 78% 29.73 in 10.0 mi ESE 17.3 mph 20.7 mph N/A   Mostly Cloudy
11:33 AM 69.8 °F 64.4 °F 83% 29.75 in 10.0 mi ESE 9.2 mph - N/A   Overcast
11:53 AM 69.8 °F 66.2 °F 88% 29.75 in 10.0 mi SE 11.5 mph - N/A   Overcast
12:12 PM 71.6 °F 66.2 °F 83% 29.74 in 10.0 mi ESE 13.8 mph - N/A   Mostly Cloudy
12:33 PM 69.8 °F 66.2 °F 88% 29.74 in 10.0 mi East 11.5 mph 17.3 mph N/A   Overcast
12:52 PM 69.8 °F 66.2 °F 88% 29.74 in 10.0 mi East 9.2 mph - N/A   Overcast
1:13 PM 69.8 °F 66.2 °F 88% 29.74 in 10.0 mi SE 9.2 mph - N/A   Overcast
1:33 PM 69.8 °F 66.2 °F 88% 29.73 in 7.0 mi ESE 12.7 mph - N/A Rain Light Rain
1:53 PM 69.8 °F 66.2 °F 88% 29.72 in 7.0 mi ESE 10.4 mph - N/A   Overcast
2:12 PM 71.6 °F 66.2 °F 83% 29.71 in 10.0 mi ESE 10.4 mph - N/A   Overcast
2:33 PM 69.8 °F 66.2 °F 88% 29.70 in 7.0 mi ESE 12.7 mph - N/A   Overcast
2:53 PM 69.8 °F 66.2 °F 88% 29.69 in 7.0 mi ESE 11.5 mph - N/A   Overcast
3:12 PM 69.8 °F 66.2 °F 88% 29.70 in 7.0 mi ESE 13.8 mph - N/A   Overcast
3:33 PM 69.8 °F 66.2 °F 88% 29.68 in 5.0 mi East 11.5 mph - N/A   Overcast
3:53 PM 71.6 °F 69.8 °F 94% 29.66 in 5.0 mi ESE 12.7 mph - N/A   Mostly Cloudy
4:13 PM 73.4 °F 69.8 °F 88% 29.66 in 7.0 mi ESE 17.3 mph 23.0 mph N/A   Scattered Clouds
4:33 PM 73.4 °F 68.0 °F 83% 29.66 in 10.0 mi SE 11.5 mph - N/A   Scattered Clouds
4:52 PM 73.4 °F 64.4 °F 73% 29.65 in 10.0 mi SE 13.8 mph 19.6 mph N/A   Clear
5:13 PM 73.4 °F 64.4 °F 73% 29.64 in 10.0 mi SE 10.4 mph - N/A   Clear
5:33 PM 73.4 °F 66.2 °F 78% 29.64 in 10.0 mi SSE 12.7 mph 16.1 mph N/A   Clear
5:52 PM 73.4 °F 66.2 °F 78% 29.64 in 10.0 mi SE 12.7 mph 17.3 mph N/A   Scattered Clouds
6:13 PM 73.4 °F 68.0 °F 83% 29.63 in 10.0 mi SE 10.4 mph - N/A   Scattered Clouds
6:33 PM 75.2 °F 68.0 °F 78% 29.62 in 10.0 mi SE 9.2 mph 18.4 mph N/A   Clear
6:53 PM 75.2 °F 69.8 °F 83% 29.62 in 10.0 mi SE 16.1 mph 19.6 mph N/A   Scattered Clouds
7:13 PM 75.2 °F 68.0 °F 78% 29.61 in 10.0 mi SE 17.3 mph 23.0 mph N/A   Clear
7:32 PM 73.4 °F 68.0 °F 83% 29.62 in 10.0 mi SE 12.7 mph 20.7 mph N/A   Clear
7:53 PM 73.4 °F 68.0 °F 83% 29.64 in 10.0 mi SE 9.2 mph - N/A   Mostly Cloudy
8:13 PM 73.4 °F 68.0 °F 83% 29.65 in 10.0 mi SSE 9.2 mph 17.3 mph N/A   Overcast
8:32 PM 73.4 °F 68.0 °F 83% 29.63 in 10.0 mi SE 10.4 mph - N/A   Mostly Cloudy
8:53 PM 71.6 °F 68.0 °F 88% 29.63 in 10.0 mi SE 11.5 mph - N/A   Clear
9:13 PM 71.6 °F 66.2 °F 83% 29.63 in 10.0 mi SE 11.5 mph 17.3 mph N/A   Clear
9:32 PM 71.6 °F 68.0 °F 88% 29.66 in 10.0 mi SE 10.4 mph 16.1 mph N/A   Scattered Clouds
9:53 PM 71.6 °F 68.0 °F 88% 29.66 in 10.0 mi SE 6.9 mph - N/A   Mostly Cloudy
10:13 PM 71.6 °F 66.2 °F 83% 29.64 in 10.0 mi SE 6.9 mph - N/A   Scattered Clouds
10:32 PM 69.8 °F 66.2 °F 88% 29.64 in 10.0 mi SE 9.2 mph - N/A   Clear
10:53 PM 69.8 °F 66.2 °F 88% 29.64 in 10.0 mi SE 9.2 mph - N/A   Scattered Clouds
11:13 PM 69.8 °F 66.2 °F 88% 29.64 in 10.0 mi SE 10.4 mph - N/A   Scattered Clouds
11:32 PM 68.0 °F 66.2 °F 94% 29.63 in 10.0 mi SSE 10.4 mph - N/A   Overcast
11:53 PM 68.0 °F 64.4 °F 88% 29.63 in 10.0 mi SE 10.4 mph 16.1 mph N/A   Mostly Cloudy